Weather History for Karlovy Vary, Czech Republic

Change the Weather History Date:

Tuesday, September 24, 2013

  Actual Average (EDQM) Record (EDQM)
Temperature  
Mean Temperature 56 °F -  
Max Temperature 62 °F 58 °F 71 °F (2006)
Min Temperature 48 °F 44 °F 35 °F (2002)
Degree Days  
Heating Degree Days 8    
Growing Degree Days 6 (Base 50)    
Moisture  
Dew Point 49 °F    
Average Humidity 78    
Maximum Humidity 100    
Minimum Humidity 59    
Precipitation  
Precipitation 0.00 in - - ()
Sea Level Pressure  
Sea Level Pressure 30.03 in    
Wind  
Wind Speed 6 mph ()    
Max Wind Speed 12 mph    
Max Gust Speed -    
Visibility 6.2 miles    
Events      
Averages and records for this station are not official NWS values.
T = Trace of Precipitation, MM = Missing Value Source: Averaged Metar Reports

Daily Weather History Graph

Daily Weather History Graph

Search for Another Location

Airport:

Trip Planner

Search our weather history database for the weather conditions in past years. The results will help you decide how hot, cold, wet, or windy it might be!

Date:

Astronomy

Sep. 24, 2013 Rise Set
Actual Time 6:57 AM CEST 7:02 PM CEST
Civil Twilight 6:25 AM CEST 7:34 PM CEST
Nautical Twilight 5:47 AM CEST 8:12 PM CEST
Astronomical Twilight 5:07 AM CEST 8:51 PM CEST
Moon 9:35 PM CEST (9/24) 12:27 PM CEST (9/24)
Length of Visible Light 13h 08m
Length of Day
12h 04m
Waning Gibbous, 75% of the Moon is Illuminated
Sep 24
Waning Gibbous
Sep 27
Last Quarter
Oct 5
New
Oct 12
First Quarter
Oct 19
Full

Hourly Weather History & Observations

Time (CEST) Temp. Dew Point Humidity Pressure Visibility Wind Dir Wind Speed Gust Speed Precip Events Conditions
12:00 AM 53.6 °F 50.0 °F 88% 30.12 in 6.2 mi West 8.1 mph - N/A   Mostly Cloudy
1:00 AM 53.6 °F 48.2 °F 82% 30.12 in 6.2 mi WSW 6.9 mph - N/A   Mostly Cloudy
2:00 AM 53.6 °F 48.2 °F 82% 30.09 in 6.2 mi WSW 5.8 mph - N/A   Mostly Cloudy
3:00 AM 53.6 °F 48.2 °F 82% 30.09 in 6.2 mi WSW 5.8 mph - N/A   Mostly Cloudy
4:00 AM 53.6 °F 48.2 °F 82% 30.06 in 6.2 mi West 9.2 mph - N/A   Mostly Cloudy
5:00 AM 53.6 °F 48.2 °F 82% 30.06 in 6.2 mi West 6.9 mph - N/A   Mostly Cloudy
6:00 AM 53.6 °F 48.2 °F 82% 30.06 in 6.2 mi West 8.1 mph - N/A   Mostly Cloudy
7:00 AM 51.8 °F 48.2 °F 88% 30.04 in 6.2 mi WSW 8.1 mph - N/A   Mostly Cloudy
7:30 AM 51.8 °F 48.2 °F 88% 30.06 in 6.2 mi WSW 6.9 mph - N/A   Mostly Cloudy
8:00 AM 51.8 °F 48.2 °F 88% 30.06 in 6.2 mi WSW 5.8 mph - N/A   Mostly Cloudy
8:30 AM 51.8 °F 48.2 °F 88% 30.06 in 6.2 mi WSW 6.9 mph - N/A   Mostly Cloudy
9:00 AM 53.6 °F 48.2 °F 82% 30.06 in 6.2 mi WSW 8.1 mph - N/A   Mostly Cloudy
9:30 AM 53.6 °F 48.2 °F 82% 30.06 in 6.2 mi West 6.9 mph - N/A   Mostly Cloudy
10:00 AM 53.6 °F 48.2 °F 82% 30.06 in 6.2 mi West 5.8 mph - N/A   Mostly Cloudy
10:30 AM 53.6 °F 48.2 °F 82% 30.06 in 6.2 mi West 9.2 mph - N/A   Mostly Cloudy
11:00 AM 53.6 °F 48.2 °F 82% 30.06 in 6.2 mi West 9.2 mph - N/A   Mostly Cloudy
11:30 AM 53.6 °F 48.2 °F 82% 30.04 in 6.2 mi WSW 5.8 mph - N/A   Mostly Cloudy
12:00 PM 55.4 °F 48.2 °F 77% 30.04 in 6.2 mi West 8.1 mph - N/A   Mostly Cloudy
12:30 PM 55.4 °F 46.4 °F 72% 30.04 in 6.2 mi West 11.5 mph - N/A   Mostly Cloudy
1:00 PM 57.2 °F 48.2 °F 72% 30.04 in 6.2 mi West 10.4 mph - N/A   Mostly Cloudy
1:30 PM 59.0 °F 48.2 °F 67% 30.04 in 6.2 mi West 8.1 mph - N/A   Mostly Cloudy
2:00 PM 59.0 °F 48.2 °F 67% 30.01 in 6.2 mi West 10.4 mph - N/A   Scattered Clouds
2:30 PM 60.8 °F 48.2 °F 63% 30.01 in 6.2 mi West 10.4 mph - N/A   Scattered Clouds
3:00 PM 59.0 °F 48.2 °F 67% 30.01 in 6.2 mi West 8.1 mph - N/A   Partly Cloudy
3:30 PM 60.8 °F 48.2 °F 63% 30.01 in 6.2 mi WSW 6.9 mph - N/A   Partly Cloudy
4:00 PM 62.6 °F 50.0 °F 63% 30.01 in 6.2 mi West 6.9 mph - N/A   Partly Cloudy
4:30 PM 62.6 °F 48.2 °F 59% 29.98 in 6.2 mi WSW 8.1 mph - N/A   Partly Cloudy
5:00 PM 62.6 °F 50.0 °F 63% 29.98 in - WSW 6.9 mph - N/A   Clear
5:30 PM 62.6 °F 50.0 °F 63% 29.98 in - WSW 4.6 mph - N/A   Clear
6:00 PM 60.8 °F 50.0 °F 68% 29.98 in - WSW 6.9 mph - N/A   Clear
6:30 PM 59.0 °F 50.0 °F 72% 29.98 in - WSW 4.6 mph - N/A   Clear
7:00 PM 57.2 °F 50.0 °F 77% 29.98 in - West 4.6 mph - N/A   Clear
7:30 PM 55.4 °F 50.0 °F 82% 29.98 in - WNW 2.3 mph - N/A   Clear
8:00 PM 53.6 °F 48.2 °F 82% 29.98 in 6.2 mi North 3.5 mph - N/A   Partly Cloudy
8:30 PM 53.6 °F 50.0 °F 88% 29.98 in 6.2 mi North 3.5 mph - N/A   Partly Cloudy
9:00 PM 53.6 °F 48.2 °F 82% 29.98 in 6.2 mi Variable 2.3 mph - N/A   Scattered Clouds
10:00 PM 53.6 °F 48.2 °F 82% 29.98 in 6.2 mi West 2.3 mph - N/A   Mostly Cloudy
11:00 PM 48.2 °F 48.2 °F 100% 29.98 in 6.2 mi Calm Calm - N/A   Mostly Cloudy